Weather Roundup
Issued by NWS

Home | Current Version | Previous Version | Graphics & Text | Print | Product List | Glossary Off
Versions: 1 2 3 4 5 6 7 8 9 10 11 12 13 14 15 16 17 18 19 20 21 22 23 24 25 26 27 28 29 30 31 32 33 34 35 36 37 38 39 40 41 42 43 44 45 46 47 48 49 50

000
NZUS93 KARX 260010
HRRWXR

CURRENT HOURLY OBSERVATIONS ACROSS
MUCH OF THE UPPER MISSISSIPPI VALLEY
NATIONAL WEATHER SERVICE LA CROSSE WI
700 PM CDT SAT APR 25 2015


...SOUTHEAST MINNESOTA...


CITY           SKY/WX    TMP DP  RH WIND       PRES   REMARKS
ROCHESTER      MOSUNNY   53  32  44 NE12      29.87R
ROCHESTER/MAYO FAIR      55  30  37 E3        29.86S
WINONA         MOSUNNY   55  23  28 E9        29.86R
AUSTIN         MOSUNNY   52  37  58 E6        29.86R
ALBERT LEA     CLOUDY    52  39  62 NE9       29.86S
DODGE CENTER   MOSUNNY   54  37  54 E8        29.87R
PRESTON        PTSUNNY   52  33  48 E5        29.86R
OWATONNA       MOSUNNY   54  37  54 E9        29.87R
FARIBAULT      MOSUNNY   57  34  41 E7        29.87R
$$

...ELSEWHERE IN MINNESOTA...


CITY           SKY/WX    TMP DP  RH WIND       PRES   REMARKS
MINNEAPOLIS    SUNNY     60  19  20 NE13      29.86R
INTNL FALLS    SUNNY     55  24  30 E10       29.98R
DULUTH         SUNNY     41  14  33 E14       29.99R
RED WING       SUNNY     61  18  18 E9        29.85S
REDWOOD FALLS  CLOUDY    58  37  45 E8        29.85R
MANKATO        CLOUDY    55  36  47 E9        29.87R
WORTHINGTON    CLOUDY    52  37  58 E16       29.86R
FAIRMONT       CLOUDY    52  36  54 E14       29.86R
$$

...SOUTHWEST WISCONSIN...


CITY           SKY/WX    TMP DP  RH WIND       PRES   REMARKS
LA CROSSE      CLEAR     58  16  19 E10       29.85R
PRAIRIE DU CHI CLOUDY    51  30  44 E8        29.85R
BOSCOBEL       CLOUDY    52  26  36 E7        29.85S
LONE ROCK      CLOUDY    51  30  44 E6        29.84S
PLATTEVILLE    CLOUDY    48  36  63 NE10G16   29.84R
FORT MC COY    PTCLDY    55  12  18 E12       29.87R
CAMP DOUGLAS   PTCLDY    53   8  16 E12       29.86R
VIROQUA        FAIR      51  23  34 E9        29.85R
WIS DELLS      PTCLDY    51  19  29 E10       29.86R
$$

...ELSEWHERE IN WISCONSIN...


CITY           SKY/WX    TMP DP  RH WIND       PRES   REMARKS
MILWAUKEE      MOCLDY    39  26  59 N16G26    29.86R WCI  30
MADISON        MOCLDY    50  27  40 E13       29.84R
GREEN BAY      PTCLDY    46  15  28 NE14      29.90S
EAU CLAIRE     SUNNY     60  19  20 NE14      29.85R
BLACK RVR FLS  FAIR      57  15  19 E8        29.85S
MEDFORD        CLEAR     55  22  27 NE3       29.86R
WAUSAU         CLEAR     54  12  18 E8        29.85R
WIS RAPIDS     PTCLDY    53  12  19 SE12      29.88R
MARSHFIELD     PTCLDY    56  18  22 E8        29.85R
RICE LAKE      SUNNY     56  28  34 N17       29.89R
$$

...NORTHEAST IOWA...


CITY           SKY/WX    TMP DP  RH WIND       PRES   REMARKS
DECORAH        CLOUDY    50  32  50 E7        29.84S
MASON CITY     CLOUDY    51  39  63 E17G23    29.86R
CHARLES CITY   CLOUDY    50  39  66 NE12      29.85S
OELWEIN        CLOUDY    50  39  66 E9        29.85R
$$

...ELSEWHERE IN IOWA...


CITY           SKY/WX    TMP DP  RH WIND       PRES   REMARKS
DES MOINES     CLOUDY    52  43  71 NE20G26   29.78R
IOWA CITY      CLOUDY    50  41  71 NE12      29.80R
FORT DODGE     CLOUDY    52  39  62 E15       29.83R
$$

...NORTHERN ILLINOIS...


CITY           SKY/WX    TMP DP  RH WIND       PRES   REMARKS
CHICAGO-OHARE  CLOUDY    42  34  73 NE13      29.81R
CHICAGO-MIDWAY DRIZZLE   46  39  76 NE14      29.81R
MOLINE         CLOUDY    49  39  68 NE17      29.77R
ROCKFORD       CLOUDY    46  33  60 NE13      29.86R
PEORIA         CLOUDY    49  44  83 NE18G24   29.72R
$$

NOTE: "FAIR" INDICATES FEW OR NO CLOUDS BELOW 12,000 FEET WITH NO
SIGNIFICANT WEATHER AND/OR OBSTRUCTIONS TO VISIBILITY. WIND
SPEEDS ARE IN MILES-PER-HOUR.



USA.gov is the U.S. government's official web portal to all federal, state and local government web resources and services.